< < Back
Terminal Aerodrome Forecast


Current Version              Previous Versions:   1  2  3  4  5  6  7  8  9  

Terminal Aerodrome Forecast

965
FTUS44 KMOB 010520
TAFPNS
TAF
KPNS 010520Z 0106/0206 14012G19KT P6SM BKN006
     FM011300 17013KT P6SM OVC020
      TEMPO 0119/0123 4SM TSRA BKN015CB
     FM020000 16008KT P6SM BKN100=



Latest METAR

272
SAUS70 KWBC 020300 RRI
MTRPNS
METAR KPNS 020253Z 15007KT 10SM BKN010 24/22 A2999 RMK AO2 CIG 008V012
SLP157 T02440222 53002


USA.gov is the U.S. government's official web portal to all federal, state and local government web resources and services.